[[{"header":{"parameterUnit":"m.s-1","parameterCategory":1,"la1":30.2991,"la2":30.254,"lo1":-89.0895,"lo2":-89.0444,"dy":0.0017,"dx":0.0017,"nx":28,"ny":28,"refTime":"2024-05-16T21:00:00:Z","depth":0,"parameterNumber":2,"parameterNumberName":"U-component_of_WINDS"},"data":[0,0,0,0,0,0,0,0,0,0,0,0,0,0,0,0,0,0,0,0,0,0,0,0,0,0,0,0,0,0,0,0,0,0,0,0,0,0,0,0,0,0,0,0,0,0,0,0,0,0,0,0,0,0,0,0,0,0,1.5705,1.5704,0,1.5574,1.5573,1.5571,1.5462,1.5461,1.546,1.5459,1.532,1.5318,1.5315,0,0,0,0,0,0,0,0,0,0,0,0,0,1.5856,1.5854,1.5705,1.5704,1.5702,1.5575,1.5573,1.5571,1.5462,1.5461,1.546,1.5458,1.5321,1.5318,1.5315,0,0,0,0,0,0,0,0,0,0,0,0,0,1.5764,1.5853,1.5706,1.5633,1.5625,1.5575,1.5573,1.5571,1.5463,1.5461,1.5459,1.5458,1.5322,1.5318,1.5315,1.5325,0,0,1.5303,1.5301,0,0,0,0,0,0,0,0,1.577,1.5759,1.5645,1.5637,1.5629,1.5533,1.5575,1.5488,1.5463,1.5524,1.5459,1.5457,1.5392,1.5382,1.5362,1.5319,1.5313,1.5302,1.53,1.5298,1.5297,0,0,0,0,0,0,0,1.5776,1.5764,1.5653,1.5643,1.5633,1.5605,1.559,1.5558,1.5469,1.5519,1.551,1.5497,1.5387,1.5366,1.5358,1.5311,1.5302,1.5299,1.5297,1.5295,1.5269,1.527,0,0,0,0,0,0,1.5794,1.577,1.5657,1.5649,1.5696,1.5603,1.5587,1.5565,1.5469,1.5453,1.5498,1.5492,1.5373,1.5362,1.5352,1.5357,1.5298,1.5295,1.5292,1.5267,1.5269,1.5271,0,0,0,0,0,0,1.5798,1.5786,1.5663,1.5707,1.569,1.5603,1.558,1.5564,1.5542,1.5454,1.5437,1.5493,1.5371,1.5358,1.5333,1.5351,1.5293,1.5289,1.5265,1.5268,1.527,1.5369,0,0,0,0,0,0,1.5803,1.5788,1.5792,1.5708,1.5688,1.5647,1.5581,1.5562,1.5536,1.5527,1.5444,1.5429,1.5369,1.5339,1.5329,1.5345,1.5286,1.5263,1.5266,1.5269,1.5363,1.5374,1.5384,0,0,0,0,0,1.5809,1.5824,1.5793,1.578,1.5692,1.5649,1.5636,1.5568,1.5538,1.5541,1.5484,1.5432,1.5351,1.5338,1.5325,1.534,1.5262,1.5266,1.5269,1.5359,1.5372,1.5383,0,0,0,0,0,0,1.591,1.5812,1.5776,1.5765,1.5716,1.563,1.5632,1.5585,1.5542,1.5535,1.5451,1.5433,1.5417,1.5376,1.5363,1.5344,1.5299,1.5301,1.5372,1.5384,1.5394,1.5403,1.5283,0,0,0,0,0,1.5932,1.5907,1.5821,1.582,1.5798,1.5719,1.5698,1.565,1.5595,1.5573,1.5515,1.5463,1.5425,1.5402,1.5363,1.5357,1.5337,1.5361,1.5371,1.538,1.5382,1.5374,1.5383,1.5283,1.5283,1.5283,0,0,1.5975,1.5918,1.5907,1.5839,1.5795,1.577,1.5702,1.5678,1.5658,1.5569,1.5542,1.5498,1.5434,1.5418,1.5408,1.5383,1.5405,1.5385,1.5392,1.5389,1.5379,1.5388,1.5397,1.5286,1.5285,1.5285,0,0,1.6041,1.5996,1.599,1.5948,1.5883,1.5831,1.583,1.5751,1.5718,1.5691,1.5623,1.5597,1.5535,1.5492,1.5462,1.5511,1.5461,1.5501,1.5553,1.5546,1.5554,1.5561,1.5577,1.5584,1.5503,1.5503,1.5504,0,1.6102,1.6062,1.5992,1.5972,1.5943,1.5863,1.5855,1.5817,1.5743,1.5724,1.5698,1.5618,1.5569,1.5541,1.5554,1.5533,1.5527,1.5509,1.5559,1.5565,1.557,1.5584,1.5591,1.5509,1.5508,1.5507,1.5507,0,1.6141,1.6114,1.6116,1.6048,1.6019,1.6005,1.5931,1.591,1.5865,1.5815,1.5787,1.5726,1.5672,1.5663,1.5617,1.5628,1.5615,1.5575,1.5528,1.5586,1.5598,1.5603,1.5516,1.5514,1.5513,1.5511,0,0,1.6265,1.6159,1.6161,1.6128,1.6052,1.6029,1.6011,1.596,1.5943,1.5895,1.5876,1.5825,1.5788,1.5754,1.5703,1.5698,1.5739,1.5658,1.5655,1.5674,1.5746,1.5775,1.5783,1.5706,1.5707,1.5708,1.5751,0,1.6317,1.6282,1.6217,1.6202,1.6175,1.61,1.6083,1.6034,1.5987,1.5956,1.5903,1.5869,1.5823,1.5802,1.5793,1.5736,1.5752,1.5732,1.5686,1.5685,1.5703,1.5789,1.582,1.5864,1.5755,1.5756,1.5756,0,1.6373,1.633,1.6312,1.6237,1.6223,1.621,1.6158,1.6131,1.6072,1.6038,1.6001,1.5946,1.5921,1.5879,1.5842,1.583,1.5807,1.5777,1.5777,1.5768,1.5723,1.5781,1.5876,1.5882,1.5763,1.5763,1.5762,0,1.6463,1.6402,1.6383,1.6357,1.627,1.6262,1.6225,1.6165,1.6138,1.6093,1.6074,1.6026,1.5999,1.5962,1.5894,1.5871,1.5864,1.5817,1.5834,1.5835,1.5834,1.5835,1.5925,1.5823,1.5823,1.5823,1.5823,0,1.6527,1.6519,1.6422,1.641,1.6398,1.6324,1.6314,1.6269,1.6217,1.6193,1.6125,1.6104,1.6018,1.5986,1.5933,1.591,1.5899,1.5869,1.5855,1.5874,1.5878,1.5857,1.5851,1.5824,1.5824,1.5824,1.5824,0,1.6625,1.6561,1.6535,1.6455,1.6434,1.6429,1.6359,1.6343,1.6293,1.6265,1.6254,1.6174,1.6134,1.6063,1.6002,1.5967,1.5953,1.593,1.5973,1.5964,1.5984,1.5983,1.6062,1.6068,1.5965,1.5966,1.5967,0,1.6669,1.6661,1.6581,1.6561,1.6527,1.6496,1.6469,1.6396,1.637,1.6304,1.6296,1.6251,1.621,1.6149,1.6085,1.6037,1.6011,1.6042,1.6003,1.6023,1.6009,1.601,1.6008,1.6051,1.6052,1.6053,1.6054,0,1.6754,1.6722,1.6687,1.6641,1.6611,1.657,1.6526,1.6513,1.643,1.6404,1.6363,1.6332,1.6271,1.6226,1.6169,1.6129,1.6077,1.6068,1.6068,1.6087,1.6112,1.6097,1.5996,1.6065,1.6064,1.6064,1.6063,1.6063,1.6824,1.6813,1.6755,1.6718,1.6677,1.6638,1.6619,1.6568,1.6533,1.6478,1.6437,1.6398,1.6339,1.6258,1.6221,1.6188,1.6164,1.6166,1.6166,1.6167,1.6174,1.612,1.6178,1.6177,1.6177,1.6176,1.6176,0,1.6903,1.6863,1.6829,1.677,1.6741,1.6698,1.6646,1.6624,1.6591,1.6541,1.6504,1.6456,1.6412,1.6345,1.6295,1.6282,1.6257,1.6271,1.627,1.6262,1.6199,1.6202,1.6292,1.6292,1.6292,1.6292,1.6292,1.6292,1.6941,1.692,1.6882,1.6839,1.6797,1.6761,1.6735,1.6698,1.6657,1.6608,1.6572,1.6529,1.6471,1.6417,1.6374,1.6356,1.634,1.6361,1.6335,1.6277,1.6266,1.6256,1.6258,1.6359,1.6359,1.6399,1.64,1.64]},{"header":{"parameterUnit":"m.s-1","parameterCategory":1,"la1":30.2991,"la2":30.254,"lo1":-89.0895,"lo2":-89.0444,"dy":0.0017,"dx":0.0017,"nx":28,"ny":28,"refTime":"2024-05-16T21:00:00:Z","depth":0,"parameterNumber":3,"parameterNumberName":"V-component_of_WINDS"},"data":[0,0,0,0,0,0,0,0,0,0,0,0,0,0,0,0,0,0,0,0,0,0,0,0,0,0,0,0,0,0,0,0,0,0,0,0,0,0,0,0,0,0,0,0,0,0,0,0,0,0,0,0,0,0,0,0,0,0,9.269,9.2691,0,9.2814,9.2815,9.2817,9.277,9.2767,9.2764,9.2762,9.2878,9.2884,9.289,0,0,0,0,0,0,0,0,0,0,0,0,0,9.24,9.2406,9.2689,9.2691,9.2693,9.2814,9.2815,9.2817,9.277,9.2767,9.2764,9.276,9.2877,9.2883,9.289,0,0,0,0,0,0,0,0,0,0,0,0,0,9.2525,9.2408,9.2689,9.2684,9.2685,9.2813,9.2815,9.2817,9.2771,9.2767,9.2763,9.2759,9.2874,9.2883,9.2891,9.3028,0,0,9.2917,9.2921,0,0,0,0,0,0,0,0,9.2518,9.2536,9.2683,9.2685,9.2686,9.2772,9.2756,9.2888,9.2772,9.2738,9.2762,9.2757,9.2846,9.2856,9.2889,9.3034,9.3039,9.2918,9.2923,9.2927,9.2929,0,0,0,0,0,0,0,9.2509,9.253,9.2738,9.2686,9.2687,9.2672,9.2685,9.2781,9.2814,9.2741,9.2738,9.2754,9.2846,9.2881,9.2891,9.304,9.2918,9.2925,9.2931,9.2934,9.3301,9.3306,0,0,0,0,0,0,9.2502,9.2523,9.2734,9.2742,9.259,9.2681,9.2695,9.2749,9.2813,9.2819,9.2757,9.2751,9.2868,9.2881,9.2895,9.3059,9.2927,9.2935,9.294,9.3297,9.3302,9.3307,0,0,0,0,0,0,9.2496,9.2521,9.2729,9.2632,9.2657,9.269,9.275,9.2753,9.2788,9.2825,9.283,9.2788,9.2865,9.2883,9.2996,9.3062,9.2939,9.2947,9.3291,9.3299,9.3305,9.3388,0,0,0,0,0,0,9.2488,9.2519,9.2575,9.2634,9.2663,9.2832,9.2755,9.2759,9.2805,9.2798,9.2855,9.286,9.2863,9.2983,9.3004,9.3072,9.2953,9.3286,9.3295,9.3303,9.3379,9.3397,9.3412,0,0,0,0,0,9.2478,9.2591,9.2578,9.2604,9.2733,9.2836,9.2852,9.2856,9.281,9.2864,9.2887,9.2858,9.3051,9.2995,9.3018,9.3089,9.3281,9.3292,9.3302,9.3372,9.3393,9.3411,0,0,0,0,0,0,9.2536,9.2599,9.2585,9.2722,9.2774,9.2828,9.2896,9.2879,9.2943,9.2933,9.2932,9.2945,9.3062,9.3086,9.3023,9.3224,9.3159,9.3174,9.3204,9.3225,9.324,9.3231,9.296,0,0,0,0,0,9.2565,9.2647,9.2696,9.2812,9.2839,9.2863,9.2908,9.2907,9.296,9.2981,9.3012,9.3061,9.3133,9.318,9.3248,9.3382,9.3392,9.3442,9.3458,9.3472,9.3485,9.3555,9.3577,9.3341,9.3341,9.3341,0,0,9.2625,9.267,9.2721,9.2825,9.2865,9.2946,9.2882,9.2971,9.303,9.2993,9.3102,9.3127,9.3181,9.3305,9.3361,9.333,9.3552,9.3485,9.3495,9.3501,9.3568,9.3591,9.361,9.3348,9.3347,9.3346,0,0,9.2777,9.282,9.2921,9.2963,9.3026,9.3042,9.3066,9.3122,9.3138,9.3249,9.3222,9.329,9.3414,9.3454,9.349,9.3655,9.363,9.3677,9.3761,9.383,9.3848,9.3865,9.3922,9.3943,9.369,9.369,9.369,0,9.2843,9.2968,9.2973,9.3065,9.311,9.3083,9.3183,9.3222,9.3303,9.3333,9.3297,9.3451,9.3486,9.3618,9.3658,9.3689,9.3714,9.367,9.3846,9.3862,9.3878,9.3932,9.3954,9.3695,9.3694,9.3694,9.3693,0,9.3045,9.3131,9.3204,9.3287,9.334,9.3434,9.3451,9.3503,9.3497,9.3514,9.3625,9.3666,9.3741,9.3772,9.3766,9.3903,9.3881,9.3846,9.378,9.3905,9.3956,9.3977,9.3703,9.3701,9.3699,9.3698,0,0,9.3237,9.3322,9.3348,9.3384,9.3452,9.3517,9.3608,9.3685,9.3729,9.3785,9.3859,9.3965,9.3932,9.3973,9.3971,9.4031,9.4157,9.3988,9.3989,9.4017,9.4308,9.4334,9.4358,9.4141,9.4145,9.4148,9.4303,0,9.3393,9.3559,9.3566,9.3715,9.3794,9.3769,9.3848,9.3896,9.3914,9.398,9.3998,9.4073,9.4025,9.405,9.4109,9.413,9.4215,9.4119,9.4208,9.4211,9.4195,9.4385,9.4413,9.4557,9.4323,9.4327,9.4329,0,9.3597,9.3663,9.3822,9.3877,9.3909,9.3982,9.4051,9.4116,9.4168,9.4176,9.4223,9.4211,9.4301,9.4233,9.4354,9.4288,9.4325,9.434,9.4346,9.4353,9.4277,9.4397,9.4604,9.4625,9.4361,9.4358,9.4356,0,9.372,9.3848,9.3959,9.399,9.4058,9.4109,9.4138,9.4186,9.4231,9.4291,9.432,9.4388,9.4425,9.4476,9.4481,9.4431,9.4603,9.4536,9.461,9.461,9.4647,9.4644,9.4861,9.4672,9.4672,9.4671,9.4671,0,9.3893,9.399,9.4015,9.4083,9.419,9.4195,9.43,9.4324,9.4367,9.4437,9.4418,9.4483,9.4487,9.4552,9.4556,9.4655,9.4672,9.4679,9.4679,9.4681,9.468,9.4704,9.4693,9.4677,9.4676,9.4675,9.4674,0,9.4048,9.4069,9.4188,9.4243,9.4258,9.4335,9.4379,9.4442,9.4458,9.4546,9.4567,9.4592,9.4667,9.4678,9.4766,9.4769,9.4887,9.4877,9.4871,9.4869,9.4943,9.4935,9.5182,9.5214,9.5005,9.5007,9.5008,0,9.4157,9.4232,9.4295,9.4343,9.4376,9.4451,9.4498,9.4504,9.4553,9.4617,9.4672,9.4746,9.4806,9.4928,9.4951,9.5017,9.5008,9.509,9.5017,9.5016,9.5007,9.5003,9.5009,9.5103,9.5105,9.5107,9.5109,0,9.4348,9.4354,9.4425,9.4498,9.4555,9.4612,9.4666,9.4704,9.4717,9.4772,9.4851,9.4898,9.4989,9.5062,9.5127,9.5153,9.5132,9.5132,9.5152,9.5154,9.5147,9.5151,9.4908,9.5126,9.5124,9.5123,9.5122,9.5121,9.4483,9.4548,9.4602,9.468,9.4722,9.4772,9.4834,9.4859,9.4927,9.5003,9.5002,9.5088,9.5135,9.5221,9.5252,9.5317,9.5289,9.5319,9.5327,9.5334,9.5341,9.5138,9.5329,9.5328,9.5328,9.5327,9.5327,0,9.4671,9.4705,9.4777,9.4855,9.4915,9.4894,9.4951,9.5002,9.508,9.5127,9.5187,9.5277,9.5347,9.5376,9.5444,9.549,9.5482,9.5508,9.5504,9.551,9.5362,9.5337,9.5513,9.5513,9.5513,9.5513,9.5513,9.5513,9.4777,9.4885,9.4898,9.5025,9.5057,9.5144,9.5179,9.5224,9.5261,9.5364,9.5423,9.5443,9.5482,9.5552,9.5615,9.5621,9.5646,9.5676,9.5678,9.5539,9.552,9.5502,9.5479,9.5682,9.5682,9.582,9.5821,9.5822]}]]